Location: Barcelona
(41.3830°N, 2.1830°E)
Time: 04:32:33
(UTC+01:00)

ISS - Pass Details

Date: 11 November 2019
Orbit: 412 x 421 km, 51.6° (Epoch: 12 November)

Event Time Altitude Azimuth Distance (km) Brightness Sun altitude
Exits shadow 05:47:39 61° 6° (N) 481 -3.6 -20.2°
Maximum altitude 05:47:54 64° 33° (NNE) 469 -3.5 -20.1°
Drops below altitude 10° 05:51:14 10° 116° (ESE) 1,495 0.1 -19.5°
Sets 05:53:20 0° 119° (ESE) 2,354 1.3 -19.1°
